Change the Weather History Date:

Thursday, February 13, 2014

  Actual Average Record
Temperature  
Mean Temperature 16 °F -  
Max Temperature 24 °F 30 °F 44 °F (2011)
Min Temperature 8 °F 18 °F -2 °F (2015)
Degree Days  
Heating Degree Days 49    
Moisture  
Dew Point 11 °F    
Average Humidity 72    
Maximum Humidity 85    
Minimum Humidity 60    
Precipitation  
Precipitation 0.01 in - - ()
Sea Level Pressure  
Sea Level Pressure 29.88 in    
Wind  
Wind Speed 4 mph (SSE)    
Max Wind Speed 14 mph    
Max Gust Speed -    
Averages and records for this station are not official NWS values.
T = Trace of Precipitation, MM = Missing Value Source: NWS Daily Summary

Daily Weather History Graph

Daily Weather History Graph

Search for Another Location

Airport or City:

Trip Planner

Search our weather history database for the weather conditions in past years. The results will help you decide how hot, cold, wet, or windy it might be!

Date:

Astronomy

Feb. 13, 2014 Rise Set
Actual Time 7:33 AM EST 5:58 PM EST
Civil Twilight 7:03 AM EST 6:27 PM EST
Nautical Twilight 6:29 AM EST 7:01 PM EST
Astronomical Twilight 5:56 AM EST 7:35 PM EST
Moon 5:05 PM EST (2/13) 6:26 AM EST (2/13)
Length of Visible Light 11h 24m
Length of Day
10h 24m
Waxing Gibbous, 98% of the Moon is Illuminated
Feb 13
Waxing Gibbous
Feb 14
Full
Feb 22
Last Quarter
Mar 1
New
Mar 8
First Quarter

Hourly Weather History & Observations

Time (EST) Temp. Windchill Dew Point Humidity Pressure Visibility Wind Dir Wind Speed Gust Speed Precip Events Conditions
12:51 AM 12.0 °F - 5.0 °F 73% 30.13 in - Calm Calm - N/A   Unknown
1:51 AM 12.9 °F - 7.0 °F 77% 30.12 in - Calm Calm - N/A   Unknown
2:51 AM 15.1 °F 9.4 °F 7.0 °F 70% 30.10 in - SW 3.5 mph - N/A   Unknown
3:51 AM 15.1 °F - 7.0 °F 70% 30.09 in - Calm Calm - N/A   Unknown
4:51 AM 12.0 °F - 5.0 °F 73% 30.07 in - Calm Calm - N/A   Unknown
5:51 AM 8.1 °F 1.4 °F 3.9 °F 83% 30.06 in - SSW 3.5 mph - N/A   Unknown
6:51 AM 12.0 °F - 8.1 °F 84% 30.05 in - Calm Calm - N/A   Unknown
7:51 AM 15.1 °F - 9.0 °F 77% 30.05 in - Calm Calm - N/A   Unknown
8:51 AM 18.0 °F - 10.9 °F 74% 30.03 in - Calm Calm - N/A   Unknown
9:51 AM 19.9 °F 7.9 °F 15.1 °F 81% 29.99 in - ESE 11.5 mph - N/A   Unknown
10:51 AM 19.9 °F 6.7 °F 12.9 °F 74% 29.97 in - ESE 13.8 mph - N/A   Unknown
11:51 AM 21.0 °F 9.3 °F 12.0 °F 68% 29.93 in - SE 11.5 mph - N/A   Unknown
12:51 PM 21.9 °F 10.4 °F 10.9 °F 63% 29.88 in - SE 11.5 mph - N/A   Unknown
1:51 PM 23.0 °F 13.1 °F 12.9 °F 65% 29.82 in - SSE 9.2 mph - N/A   Unknown
2:51 PM 23.0 °F 17.0 °F 14.0 °F 68% 29.81 in - SE 4.6 mph - N/A   Unknown
3:51 PM 24.1 °F 15.2 °F 12.0 °F 60% 29.78 in - SE 8.1 mph - N/A   Unknown
4:51 PM 23.0 °F 13.9 °F 12.9 °F 65% 29.76 in - SE 8.1 mph - N/A   Unknown
5:51 PM 23.0 °F 18.4 °F 12.9 °F 65% 29.74 in - SSE 3.5 mph - N/A   Unknown
6:51 PM 23.0 °F 13.9 °F 14.0 °F 68% 29.69 in - SE 8.1 mph - N/A   Unknown
7:51 PM 21.9 °F 12.5 °F 14.0 °F 72% 29.66 in - SE 8.1 mph - N/A   Unknown
8:51 PM 21.0 °F 16.2 °F 14.0 °F 74% 29.65 in - SSE 3.5 mph - N/A   Unknown
9:51 PM 21.0 °F 14.6 °F 14.0 °F 74% 29.62 in - SSE 4.6 mph - N/A   Unknown
10:51 PM 21.9 °F 15.7 °F 10.0 °F 60% 29.60 in - Variable 4.6 mph - N/A   Unknown
11:51 PM 19.9 °F 12.1 °F 16.0 °F 85% 29.57 in - Variable 5.8 mph - 0.01 in   Unknown